Oscoda, MI

5:04 PM EDT on April 25, 2018 (GMT -0400)
Oscoda-Wurtsmith

Weather History for KOSC - August, 2014

Change the Weather History Date:

Friday, August 22, 2014

  Actual Average Record
Temperature  
Mean Temperature 64 °F -  
Max Temperature 73 °F 74 °F 87 °F (2007)
Min Temperature 56 °F 56 °F 42 °F (2004)
Growing Degree Days 14 (Base 50)    
Moisture  
Dew Point 62 °F    
Average Humidity 91    
Maximum Humidity 100    
Minimum Humidity 71    
Precipitation  
Precipitation 0.00 in - - ()
Sea Level Pressure  
Sea Level Pressure 30.01 in    
Wind  
Wind Speed 2 mph (ENE)    
Max Wind Speed 9 mph    
Max Gust Speed -    
Visibility 8 miles    
Events Fog    
Averages and records for this station are not official NWS values.
T = Trace of Precipitation, MM = Missing Value Source: NWS Daily Summary

Daily Weather History Graph

Daily Weather History Graph

Search for Another Location

Airport or City:

Astronomy

Aug. 22, 2014 Rise Set
Actual Time 6:44 AM EDT 8:27 PM EDT
Civil Twilight 6:13 AM EDT 8:58 PM EDT
Nautical Twilight 5:36 AM EDT 9:35 PM EDT
Astronomical Twilight 4:55 AM EDT 10:15 PM EDT
Moon 4:03 AM EDT (8/22) 6:37 PM EDT (8/22)
Length of Visible Light 14h 44m
Length of Day
13h 42m
Waning Crescent, 8% of the Moon is Illuminated
Aug 22
Waning Crescent
Aug 25
New
Sep 2
First Quarter
Sep 8
Full
Sep 15
Last Quarter

Hourly Weather History & Observations

Time (EDT) Temp. Dew Point Humidity Pressure Visibility Wind Dir Wind Speed Gust Speed Precip Events Conditions
12:14 AM 58.5 °F 57.6 °F 97% 30.00 in 10.0 mi Calm Calm - N/A   Scattered Clouds
12:34 AM 57.9 °F 57.6 °F 99% 30.00 in 10.0 mi Calm Calm - N/A   Scattered Clouds
12:54 AM 57.7 °F 57.2 °F 98% 30.00 in 4.0 mi Calm Calm - N/A   Mostly Cloudy
1:14 AM 56.8 °F 56.5 °F 99% 30.01 in 1.8 mi Calm Calm - N/A   Mostly Cloudy
1:34 AM 57.2 °F 57.0 °F 99% 30.00 in 5.0 mi Calm Calm - N/A   Mostly Cloudy
1:53 AM 58.5 °F 58.5 °F 100% 29.99 in 0.2 mi Calm Calm - N/A Fog Fog
2:14 AM 57.6 °F 57.6 °F 100% 29.99 in 0.8 mi Calm Calm - N/A   Overcast
2:34 AM 56.8 °F 56.8 °F 100% 29.99 in 2.0 mi North 3.5 mph - N/A   Overcast
2:53 AM 56.7 °F 56.7 °F 100% 29.99 in 7.0 mi Calm Calm - N/A   Overcast
3:14 AM 56.5 °F 56.5 °F 100% 29.98 in 10.0 mi Calm Calm - N/A   Overcast
3:34 AM 57.4 °F 57.4 °F 100% 29.98 in 10.0 mi Calm Calm - N/A   Overcast
3:53 AM 58.1 °F 58.1 °F 100% 29.98 in 10.0 mi Calm Calm - N/A   Overcast
4:14 AM 58.6 °F 58.6 °F 100% 29.97 in 10.0 mi Calm Calm - N/A   Scattered Clouds
4:34 AM 58.6 °F 58.6 °F 100% 29.97 in 10.0 mi Calm Calm - N/A   Clear
4:54 AM 58.1 °F 58.1 °F 100% 29.96 in 10.0 mi Calm Calm - N/A   Clear
5:14 AM 58.1 °F 57.7 °F 99% 29.96 in 10.0 mi Calm Calm - N/A   Scattered Clouds
5:34 AM 58.1 °F 58.1 °F 100% 29.96 in 10.0 mi Calm Calm - N/A   Mostly Cloudy
5:54 AM 58.3 °F 58.1 °F 99% 29.97 in 10.0 mi Calm Calm - N/A   Overcast
6:14 AM 59.2 °F 59.2 °F 100% 29.98 in 10.0 mi Calm Calm - N/A   Overcast
6:34 AM 59.5 °F 59.5 °F 100% 29.98 in 10.0 mi Calm Calm - N/A   Overcast
6:54 AM 60.1 °F 59.9 °F 99% 29.98 in 10.0 mi Calm Calm - N/A   Overcast
7:14 AM 60.6 °F 60.3 °F 99% 29.99 in 10.0 mi Calm Calm - N/A   Overcast
7:34 AM 61.0 °F 60.8 °F 99% 29.99 in 7.0 mi Calm Calm - N/A   Overcast
7:54 AM 61.3 °F 61.2 °F 99% 30.01 in 5.0 mi North 3.5 mph - N/A   Overcast
8:14 AM 62.1 °F 61.9 °F 99% 30.01 in 7.0 mi Calm Calm - N/A   Overcast
8:34 AM 62.2 °F 61.9 °F 99% 30.02 in 10.0 mi Calm Calm - N/A   Overcast
8:54 AM 62.6 °F 62.2 °F 99% 30.02 in 10.0 mi Calm Calm - N/A   Overcast
9:14 AM 63.1 °F 62.6 °F 98% 30.02 in 10.0 mi Calm Calm - N/A   Overcast
9:34 AM 64.6 °F 63.5 °F 96% 30.02 in 10.0 mi Calm Calm - N/A   Overcast
9:54 AM 65.5 °F 63.9 °F 94% 30.01 in 10.0 mi SE 3.5 mph - N/A   Overcast
10:14 AM 65.8 °F 63.7 °F 93% 30.02 in 10.0 mi Calm Calm - N/A   Overcast
10:34 AM 66.2 °F 63.7 °F 92% 30.02 in 10.0 mi ESE 6.9 mph - N/A   Overcast
10:54 AM 65.8 °F 63.3 °F 92% 30.03 in 10.0 mi ESE 5.8 mph - N/A   Overcast
11:14 AM 66.7 °F 63.1 °F 88% 30.03 in 10.0 mi Calm Calm - N/A   Overcast
11:33 AM 67.1 °F 62.8 °F 86% 30.03 in 10.0 mi Calm Calm - N/A   Overcast
11:54 AM 69.6 °F 63.7 °F 81% 30.02 in 10.0 mi East 3.5 mph - N/A   Overcast
12:14 PM 71.6 °F 63.1 °F 75% 30.02 in 10.0 mi Calm Calm - N/A   Scattered Clouds
12:33 PM 71.8 °F 63.3 °F 75% 30.02 in 10.0 mi SE 3.5 mph - N/A   Mostly Cloudy
12:54 PM 72.1 °F 62.8 °F 72% 30.02 in 10.0 mi Calm Calm - N/A   Overcast
1:14 PM 72.7 °F 64.0 °F 74% 30.02 in 10.0 mi ESE 5.8 mph - N/A   Mostly Cloudy
1:33 PM 72.9 °F 64.2 °F 74% 30.02 in 10.0 mi ESE 4.6 mph - N/A   Scattered Clouds
1:54 PM 72.7 °F 64.4 °F 75% 30.02 in 10.0 mi East 5.8 mph - N/A   Scattered Clouds
2:14 PM 73.0 °F 64.0 °F 73% 30.02 in 10.0 mi East 4.6 mph - N/A   Clear
2:33 PM 73.8 °F 63.7 °F 71% 30.01 in 10.0 mi East 6.9 mph - N/A   Clear
2:54 PM 73.6 °F 64.2 °F 72% 30.01 in 10.0 mi East 9.2 mph - N/A   Clear
3:14 PM 73.2 °F 64.2 °F 73% 30.01 in 10.0 mi East 5.8 mph - N/A   Clear
3:33 PM 73.2 °F 63.9 °F 72% 30.00 in 10.0 mi East 5.8 mph - N/A   Clear
3:54 PM 72.3 °F 63.7 °F 74% 30.00 in 10.0 mi East 8.1 mph - N/A   Clear
4:14 PM 73.4 °F 63.7 °F 71% 30.00 in 10.0 mi ENE 6.9 mph - N/A   Clear
4:34 PM 73.8 °F 63.7 °F 71% 30.00 in 10.0 mi East 5.8 mph - N/A   Clear
4:54 PM 72.1 °F 63.9 °F 75% 30.00 in 10.0 mi East 5.8 mph - N/A   Clear
5:14 PM 71.4 °F 63.7 °F 76% 30.01 in 10.0 mi East 8.1 mph - N/A   Clear
5:34 PM 71.1 °F 64.2 °F 79% 30.01 in 10.0 mi East 5.8 mph - N/A   Clear
5:54 PM 70.2 °F 64.0 °F 81% 30.02 in 10.0 mi East 5.8 mph - N/A   Clear
6:14 PM 69.3 °F 63.5 °F 82% 30.03 in 10.0 mi East 6.9 mph - N/A   Clear
6:34 PM 68.2 °F 63.7 °F 85% 30.03 in 10.0 mi East 5.8 mph - N/A   Clear
6:54 PM 67.6 °F 63.5 °F 87% 30.03 in 7.0 mi East 6.9 mph - N/A   Mostly Cloudy
7:13 PM 66.2 °F 63.7 °F 92% 30.02 in 7.0 mi East 5.8 mph - N/A   Mostly Cloudy
7:34 PM 65.7 °F 63.9 °F 94% 30.03 in 7.0 mi East 5.8 mph - N/A   Overcast
7:54 PM 65.3 °F 63.7 °F 94% 30.03 in 7.0 mi East 3.5 mph - N/A   Overcast
8:13 PM 64.6 °F 63.7 °F 97% 30.03 in 7.0 mi NE 5.8 mph - N/A   Overcast
8:34 PM 64.0 °F 63.5 °F 98% 30.03 in 5.0 mi NE 5.8 mph - N/A   Overcast
8:54 PM 63.5 °F 63.0 °F 98% 30.03 in 7.0 mi NE 4.6 mph - N/A   Overcast
9:13 PM 63.5 °F 63.0 °F 98% 30.04 in 5.0 mi Calm Calm - N/A   Overcast
9:34 PM 63.1 °F 62.8 °F 99% 30.04 in 5.0 mi ENE 3.5 mph - N/A   Overcast
9:54 PM 63.0 °F 62.8 °F 99% 30.04 in 1.5 mi NE 3.5 mph - N/A   Overcast
10:13 PM 63.0 °F 62.8 °F 99% 30.05 in 1.5 mi ENE 5.8 mph - N/A   Overcast
10:34 PM 63.1 °F 63.1 °F 100% 30.05 in 1.5 mi NE 6.9 mph - N/A   Overcast
10:54 PM 63.0 °F 63.0 °F 100% 30.05 in 1.5 mi NE 4.6 mph - N/A   Overcast
11:13 PM 63.0 °F 63.0 °F 100% 30.05 in 1.2 mi NE 5.8 mph - N/A   Overcast
11:34 PM 63.1 °F 63.1 °F 100% 30.05 in 1.0 mi ENE 6.9 mph - N/A   Overcast
11:54 PM 63.0 °F 63.0 °F 100% 30.05 in 1.0 mi NNE 3.5 mph - N/A   Overcast